This demonstration page uses our WeatherBlox Daily Observations layout. Learn more.

Left ArrowRight Arrow

Hourly Observations for April 9, 2020

Temp ( °F °C ) Dew Point ( °F °C ) Humidity (%) Winds ( mph kmh ) Pressure ( in mb ) Visibility ( mi km ) Precip ( " mm )
12:54 am 00:54 Clear 36 2.2 25 -3.9 64 64 N 7 11 30.06 1018 10 16.0934 0 0
1:54 am 01:54 Clear 42 5.6 25 -3.9 51 51 NNW 7 11 30.09 1019 10 16.0934 0 0
2:54 am 02:54 Clear 35 1.7 24 -4.4 64 64 N 7 11 30.09 1019 10 16.0934 0 0
3:54 am 03:54 Clear 39 3.9 23 -5 53 53 W 7 11 30.1 1019 10 16.0934 0 0
4:54 am 04:54 Clear 38 3.3 22 -5.6 52 52 NNW 7 11 30.11 1020 10 16.0934 0 0
5:54 am 05:54 Clear 30 -1.1 22 -5.6 72 72 N 6 9 30.11 1020 10 16.0934 0 0
6:54 am 06:54 Clear 34 1.1 22 -5.6 61 61 WNW 5 7 30.11 1020 10 16.0934 0 0
7:54 am 07:54 Sunny 37 2.8 23 -5 57 57 W 9 15 30.13 1020 10 16.0934 0 0
8:54 am 08:54 Sunny 42 5.6 23 -5 47 47 W 13 20 30.14 1021 10 16.0934 0 0
10:54 am 10:54 Mostly Sunny 52 11.1 18 -7.8 26 26 NNW 30 48 30.12 1020 10 16.0934 0 0
11:54 am 11:54 Sunny 54 12.2 18 -7.8 24 24 NW 25 41 30.13 1020 10 16.0934 0 0
12:54 pm 12:54 Sunny 55 12.8 17 -8.3 22 22 NW 28 44 30.12 1020 10 16.0934 0 0
1:54 pm 13:54 Sunny 56 13.3 11 -11.7 17 17 NNW 25 41 30.12 1020 10 16.0934 0 0
2:54 pm 14:54 Sunny 54 12.2 13 -10.6 19 19 NNW 30 48 30.12 1020 10 16.0934 0 0
3:54 pm 15:54 Sunny 53 11.7 15 -9.4 22 22 NNW 21 33 30.12 1020 10 16.0934 0 0
4:54 pm 16:54 Sunny 51 10.6 15 -9.4 24 24 N 25 41 30.14 1021 10 16.0934 0 0
5:54 pm 17:54 Sunny 49 9.4 15 -9.4 26 26 N 28 44 30.17 1022 10 16.0934 0 0
6:54 pm 18:54 Sunny 46 7.8 12 -11.1 25 25 N 23 37 30.2 1023 10 16.0934 0 0
7:54 pm 19:54 Sunny 41 5 11 -11.7 29 29 N 21 33 30.21 1023 10 16.0934 0 0
8:54 pm 20:54 Clear 36 2.2 14 -10 40 40 N 16 26 30.24 1024 10 16.0934 0 0
9:54 pm 21:54 Clear 33 0.6 15 -9.4 47 47 N 12 19 30.27 1025 10 16.0934 0 0
10:54 pm 22:54 Clear 28 -2.2 15 -9.4 58 58 N 7 11 30.28 1026 10 16.0934 0 0
11:54 pm 23:54 Clear 32 0 15 -9.4 50 50 WNW 3 6 30.28 1025 10 16.0934 0 0

Powered by AerisWeather